Tracking 29967 objects as of 5-Dec-2024
HD Live streaming from Space Station
objects crossing your sky now

STARLINK-11191

Track STARLINK-11191 now!
10-day predictions
STARLINK-11191 is classified as:


NORAD ID: 60410
Int'l Code: 2024-141N
Perigee: 366.1 km
Apogee: 367.6 km
Inclination: 53.2 °
Period: 91.7 minutes
Semi major axis: 6737 km
RCS: Unknown
Launch date: August 10, 2024
Source: United States (US)
Launch site: AIR FORCE EASTERN TEST RANGE (AFETR)
Your satellite tracking list
Your tracking list is empty




NASA's NSSDC Master Catalog

Two Line Element Set (TLE):
1 60410U 24141N   24340.31170344 -.00001502  00000-0 -75358-5 0  9992
2 60410  53.1589 190.7307 0001131  90.2886 269.8261 15.69716006 19599
Source of the keplerian elements: AFSPC